User: anonymous   Login
Location: Hiram
(41.3130°N, 81.1440°W)
Time: 13:11:46
(UTC-05:00)
Language:

Iridium 62 - Orbit

View from above orbital plane
View from above orbital plane
View from above satellite
View from above satellite

Ground track
Ground track

The orbit data is extracted from the following two-line orbital elements,

1 25285U 98021A   17019.32762894  .00000184  00000-0  58619-4 0  9997
2 25285  86.3969 286.1311 0002100  87.3412 272.8024 14.34216912983687
Epoch (UTC): 19 January 2017 07:51:47
Eccentricity: 0.0002100
inclination: 86.3969°
perigee height: 776 km
apogee height: 779 km
right ascension of ascending node: 286.1311°
argument of perigee: 87.3412°
revolutions per day: 14.34216912
mean anomaly at epoch: 272.8024°
orbit number at epoch: 98368

The dashed part of the orbit path shows where the satellite is in the earth's shadow,  

DLR